"SCET";"TARGET";"ELECTRON_DENSITY";"ERROR_FLAG";"ELECTRON_DENSITY_ERROR";"FREQ_FCE";"MEASURED_VALUE";"MEASURED_ITEM";"FREQ_PLASMA";"FREQ_UPPER_HYBRID";"FREQ_R_EQUALS_ZERO";"FREQ_L_EQUALS_ZERO";"ORBIT_NUMBER";"SATURN_RADIUS";"SATURN_IAU_LONGITUDE";"SATURN_SLS4_S_LONGITUDE";"SATURN_SLS4_N_LONGITUDE";"SATURN_SLS5_S_LONGITUDE";"SATURN_SLS5_N_LONGITUDE";"SATURN_LOCAL_TIME";"SATURN_KRONOGRAPHIC_LATITUDE";"SATURN_MAGNETIC_LATITUDE";"SATURN_L";"SATURN_L_OFFSET";"SATURN_SOLAR_EQUATORIAL_X";"SATURN_SOLAR_EQUATORIAL_Y";"SATURN_SOLAR_EQUATORIAL_Z";"SATURN_ALTITUDE";"ENCELADUS_ENCOUNTER_NUMBER";"ENCELADUS_RADIUS";"ENCELADUS_COROTATIONAL_X";"ENCELADUS_COROTATIONAL_Y";"ENCELADUS_COROTATIONAL_Z";"ENCELADUS_TRUE_ANOMALY";"ENCELADUS_PERIAPSIS_TIME";"JUPITER_RADIUS";"JUPITER_SYSTEMIII_LONGITUDE";"JUPITER_MAGNETIC_LATITUDE";"JUPITER_MAGNETIC_LOCAL_TIME";"JUPITER_L";"IO_PHASE";"EARTH_RADIUS";"EARTH_MAGNETIC_LATITUDE";"EARTH_LOCAL_TIME";"EARTH_L"
"[UTC]";"[0=Saturn, 1=Enceladus, 2=Jupiter, 3=Earth]";"[cm-3]";"[0=automated, 1=manual]";"[normalized density error]";"[Hz]";"[Hz]";"[0=upper hybrid frequency, 1=plasma frequency cutoff]";"[Hz]";"[Hz]";"[Hz]";"[Hz}";"[0, A, B, C, 3, 4, ... , 292, 293]";"[Rs where 1Rs=60268km]";"[degrees]";"[degrees]";"[degrees]";"[degrees]";"[degrees]";"[hours]";"[degrees]";"[degrees where offset=2293km north]";"[Rs where 1Rs=60268km]";"[Rs where 1Rs=60268km and offset=2293km north]";"[Rs where 1Rs=60268km]";"[Rs where 1Rs=60268km]";"[Rs where 1Rs=60268km]";"[km where ellipsoid a,b=60268km and c=54364km]";"[E0, E1, E2, ... , E21, E22]";"[Renc where 1Renc=252.1km]";"[Renc where 1Renc=252.1km]";"[Renc where 1Renc=252.1km]";"[Renc where 1Renc=252.1km]";"[degrees]";"[UTC]";"[Rj where 1Rj=71492km]";"[degrees]";"[degrees using JRM09 model]";"[hours using JRM09 model]";"[Rj where 1Rj=71492km]";"[degrees]";"[Re where 1Re=6378.1366km]";"[degrees]";"[hours]";"[Re where 1Re=6378.1366km]"
2010-03-02T17:12:30.489Z;0;3.7420e+00;0;     0.116;   513.296;  17379.219; 0;  17371.637;  17379.219;  17630.182;  17116.885;127;   8.987; 334.207;;;  21.397; 108.988;  23.219;   0.263;   0.020;   8.987;   8.978;  -8.800;   1.824;   0.041;;;;;;;;;;;;;;;;;;
2010-03-02T17:16:46.487Z;0;3.3450e+00;0;     0.199;   524.720;  16431.285; 0;  16422.904;  16431.285;  16687.359;  16162.641;127;   8.952; 336.433;;;  23.611; 111.200;  23.231;   0.263;   0.020;   8.952;   8.942;  -8.771;   1.790;   0.041;;;;;;;;;;;;;;;;;;
2010-03-02T17:17:10.487Z;0;3.2990e+00;0;     0.168;   524.720;  16317.904; 0;  16309.466;  16317.904;  16573.936;  16049.216;127;   8.948; 336.641;;;  23.817; 111.407;  23.232;   0.263;   0.020;   8.949;   8.939;  -8.768;   1.787;   0.041;;;;;;;;;;;;;;;;;;
2010-03-02T17:17:18.486Z;0;3.1470e+00;0;     0.150;   524.720;  15939.519; 0;  15930.880;  15939.519;  16195.399;  15670.680;127;   8.947; 336.711;;;  23.886; 111.476;  23.232;   0.263;   0.020;   8.947;   8.938;  -8.767;   1.786;   0.041;;;;;;;;;;;;;;;;;;
2010-03-02T17:17:58.486Z;0;3.1240e+00;0;     0.096;   530.684;  15882.017; 0;  15873.148;  15882.017;  16140.708;  15610.023;127;   8.942; 337.058;;;  24.230; 111.822;  23.234;   0.263;   0.019;   8.942;   8.932;  -8.763;   1.780;   0.041;;;;;;;;;;;;;;;;;;
2010-03-02T17:18:06.486Z;0;3.0800e+00;0;     0.095;   530.684;  15768.591; 0;  15759.658;  15768.591;  16027.234;  15496.550;127;   8.941; 337.128;;;  24.299; 111.891;  23.235;   0.263;   0.019;   8.941;   8.931;  -8.762;   1.779;   0.041;;;;;;;;;;;;;;;;;;
2010-03-02T17:18:22.486Z;0;3.1210e+00;0;     0.138;   530.684;  15873.112; 0;  15864.238;  15873.112;  16131.800;  15601.115;127;   8.938; 337.267;;;  24.436; 112.029;  23.235;   0.263;   0.019;   8.939;   8.929;  -8.760;   1.777;   0.041;;;;;;;;;;;;;;;;;;
2010-03-02T17:19:18.486Z;0;3.2960e+00;0;     0.186;   530.684;  16312.867; 0;  16304.232;  16312.867;  16571.734;  16041.050;127;   8.931; 337.753;;;  24.916; 112.513;  23.238;   0.263;   0.019;   8.931;   8.921;  -8.754;   1.770;   0.041;;;;;;;;;;;;;;;;;;
2010-03-02T17:19:42.485Z;0;3.4270e+00;0;     0.267;   520.856;  16632.055; 0;  16623.896;  16632.055;  16886.365;  16365.509;127;   8.927; 337.962;;;  25.122; 112.720;  23.239;   0.263;   0.019;   8.928;   8.918;  -8.751;   1.767;   0.041;;;;;;;;;;;;;;;;;;
2010-03-02T17:20:06.485Z;0;3.7660e+00;0;     0.147;   520.856;  17435.184; 0;  17427.402;  17435.184;  17689.775;  17168.920;127;   8.924; 338.170;;;  25.327; 112.927;  23.240;   0.263;   0.019;   8.924;   8.915;  -8.748;   1.763;   0.041;;;;;;;;;;;;;;;;;;
2010-03-02T17:20:22.485Z;0;4.0850e+00;0;     0.184;   520.856;  18157.832; 0;  18150.359;  18157.832;  18412.656;  17891.801;127;   8.922; 338.309;;;  25.466; 113.066;  23.241;   0.263;   0.019;   8.922;   8.913;  -8.746;   1.761;   0.041;;;;;;;;;;;;;;;;;;
2010-03-02T17:20:30.485Z;0;3.8400e+00;0;     0.267;   520.856;  17605.352; 0;  17597.645;  17605.352;  17860.000;  17339.145;127;   8.921; 338.379;;;  25.535; 113.135;  23.241;   0.263;   0.019;   8.921;   8.912;  -8.745;   1.760;   0.041;;;;;;;;;;;;;;;;;;
2010-03-02T17:21:58.485Z;0;3.1530e+00;0;     0.165;   545.076;  15955.721; 0;  15946.407;  15955.721;  16221.274;  15676.198;127;   8.909; 339.143;;;  26.294; 113.894;  23.245;   0.263;   0.019;   8.909;   8.899;  -8.735;   1.748;   0.041;;;;;;;;;;;;;;;;;;
2010-03-02T17:22:06.484Z;0;3.1230e+00;0;     0.140;   545.076;  15878.762; 0;  15869.403;  15878.762;  16144.281;  15599.205;127;   8.908; 339.213;;;  26.363; 113.963;  23.246;   0.263;   0.019;   8.908;   8.898;  -8.734;   1.747;   0.041;;;;;;;;;;;;;;;;;;
2010-03-02T17:22:22.484Z;0;3.2290e+00;0;     0.266;   545.076;  16146.251; 0;  16137.048;  16146.251;  16411.887;  15866.812;127;   8.905; 339.352;;;  26.502; 114.102;  23.247;   0.263;   0.019;   8.906;   8.896;  -8.733;   1.745;   0.041;;;;;;;;;;;;;;;;;;
2010-03-02T17:22:54.484Z;0;3.3300e+00;0;     0.168;   545.076;  16394.850; 0;  16385.785;  16394.850;  16660.590;  16115.515;127;   8.901; 339.629;;;  26.778; 114.378;  23.248;   0.263;   0.019;   8.901;   8.892;  -8.729;   1.741;   0.041;;;;;;;;;;;;;;;;;;
2010-03-02T17:23:10.484Z;0;3.1040e+00;0;     0.322;   545.076;  15831.743; 0;  15822.357;  15831.743;  16097.242;  15552.166;127;   8.899; 339.768;;;  26.916; 114.516;  23.249;   0.263;   0.018;   8.899;   8.889;  -8.727;   1.739;   0.041;;;;;;;;;;;;;;;;;;
2010-03-02T17:23:42.484Z;0;3.2980e+00;0;     0.180;   543.788;  16317.778; 0;  16308.715;  16317.778;  16582.875;  16039.087;127;   8.894; 340.046;;;  27.192; 114.792;  23.250;   0.263;   0.018;   8.894;   8.885;  -8.724;   1.734;   0.041;;;;;;;;;;;;;;;;;;
2010-03-02T17:23:58.484Z;0;3.2790e+00;0;     0.178;   543.788;  16269.654; 0;  16260.564;  16269.654;  16534.730;  15990.943;127;   8.892; 340.185;;;  27.330; 114.930;  23.251;   0.263;   0.018;   8.892;   8.883;  -8.722;   1.732;   0.041;;;;;;;;;;;;;;;;;;
2010-03-02T17:24:54.483Z;0;3.6040e+00;0;     0.207;   543.788;  17055.576; 0;  17046.904;  17055.576;  17320.967;  16777.180;127;   8.884; 340.671;;;  27.813; 115.413;  23.254;   0.263;   0.018;   8.885;   8.875;  -8.715;   1.725;   0.041;;;;;;;;;;;;;;;;;;
2010-03-02T17:27:10.482Z;0;3.8380e+00;0;     0.193;   530.936;  17599.467; 0;  17591.457;  17599.467;  17858.928;  17327.992;127;   8.866; 341.851;;;  28.987; 116.587;  23.260;   0.264;   0.018;   8.866;   8.856;  -8.700;   1.707;   0.041;;;;;;;;;;;;;;;;;;
2010-03-02T17:27:58.482Z;0;3.8010e+00;0;     0.187;   537.740;  17516.877; 0;  17508.621;  17516.877;  17779.555;  17241.816;127;   8.859; 342.268;;;  29.401; 117.001;  23.262;   0.264;   0.018;   8.859;   8.850;  -8.694;   1.700;   0.041;;;;;;;;;;;;;;;;;;
2010-03-02T17:28:22.482Z;0;3.1150e+00;0;     0.182;   537.740;  15858.357; 0;  15849.237;  15858.357;  16120.388;  15582.648;127;   8.856; 342.476;;;  29.608; 117.208;  23.263;   0.264;   0.018;   8.856;   8.846;  -8.691;   1.697;   0.041;;;;;;;;;;;;;;;;;;
2010-03-02T17:28:30.482Z;0;3.1800e+00;0;     0.176;   537.740;  16022.929; 0;  16013.902;  16022.929;  16285.029;  15747.290;127;   8.855; 342.545;;;  29.677; 117.277;  23.264;   0.264;   0.018;   8.855;   8.845;  -8.691;   1.696;   0.041;;;;;;;;;;;;;;;;;;
2010-03-02T17:30:22.481Z;0;3.5010e+00;0;     0.174;   545.188;  16810.924; 0;  16802.082;  16810.924;  17076.887;  16531.697;127;   8.839; 343.517;;;  30.642; 118.242;  23.269;   0.264;   0.017;   8.839;   8.830;  -8.678;   1.681;   0.041;;;;;;;;;;;;;;;;;;
2010-03-02T17:31:58.480Z;0;3.3310e+00;0;     0.105;   550.424;  16399.244; 0;  16390.004;  16399.244;  16667.527;  16117.103;127;   8.826; 344.349;;;  31.470; 119.070;  23.274;   0.264;   0.017;   8.826;   8.817;  -8.667;   1.668;   0.041;;;;;;;;;;;;;;;;;;
2010-03-02T17:32:06.480Z;0;3.1510e+00;0;     0.122;   550.424;  15948.990; 0;  15939.489;  15948.990;  16217.077;  15666.653;127;   8.825; 344.419;;;  31.539; 119.139;  23.274;   0.264;   0.017;   8.825;   8.815;  -8.666;   1.667;   0.041;;;;;;;;;;;;;;;;;;
2010-03-02T17:32:22.480Z;0;3.2120e+00;0;     0.114;   550.424;  16104.477; 0;  16095.067;  16104.477;  16372.632;  15822.208;127;   8.822; 344.557;;;  31.677; 119.277;  23.275;   0.264;   0.017;   8.823;   8.813;  -8.664;   1.665;   0.041;;;;;;;;;;;;;;;;;;
2010-03-02T17:32:30.480Z;0;3.1730e+00;0;     0.120;   550.424;  16006.649; 0;  15997.183;  16006.649;  16274.762;  15724.338;127;   8.821; 344.627;;;  31.746; 119.346;  23.275;   0.264;   0.017;   8.821;   8.812;  -8.663;   1.664;   0.041;;;;;;;;;;;;;;;;;;
2010-03-02T17:32:46.480Z;0;3.1940e+00;0;     0.123;   550.424;  16058.109; 0;  16048.673;  16058.109;  16326.245;  15775.820;127;   8.819; 344.765;;;  31.883; 119.483;  23.276;   0.264;   0.017;   8.819;   8.810;  -8.661;   1.661;   0.041;;;;;;;;;;;;;;;;;;
2010-03-02T17:32:54.480Z;0;3.1480e+00;0;     0.096;   550.424;  15942.903; 0;  15933.398;  15942.903;  16210.987;  15660.563;127;   8.818; 344.835;;;  31.952; 119.552;  23.276;   0.264;   0.017;   8.818;   8.809;  -8.660;   1.660;   0.041;;;;;;;;;;;;;;;;;;
2010-03-02T17:35:18.479Z;0;3.5430e+00;0;     0.201;   547.204;  16911.711; 0;  16902.855;  16911.711;  17178.672;  16631.469;127;   8.798; 346.083;;;  33.193; 120.793;  23.283;   0.264;   0.016;   8.798;   8.789;  -8.644;   1.641;   0.041;;;;;;;;;;;;;;;;;;
2010-03-02T17:35:42.479Z;0;3.5150e+00;0;     0.205;   554.036;  16844.826; 0;  16835.713;  16844.826;  17115.010;  16560.973;127;   8.795; 346.291;;;  33.400; 121.000;  23.284;   0.264;   0.016;   8.795;   8.786;  -8.641;   1.638;   0.041;;;;;;;;;;;;;;;;;;
2010-03-02T17:35:58.479Z;0;3.6170e+00;0;     0.198;   554.036;  17088.666; 0;  17079.682;  17088.666;  17358.947;  16804.910;127;   8.792; 346.430;;;  33.538; 121.138;  23.285;   0.264;   0.016;   8.793;   8.783;  -8.639;   1.636;   0.041;;;;;;;;;;;;;;;;;;
2010-03-02T17:36:06.479Z;0;3.6600e+00;0;     0.199;   554.036;  17188.424; 0;  17179.492;  17188.424;  17458.744;  16904.707;127;   8.791; 346.499;;;  33.607; 121.207;  23.286;   0.264;   0.016;   8.792;   8.782;  -8.638;   1.635;   0.041;;;;;;;;;;;;;;;;;;
2010-03-02T17:36:30.478Z;0;3.4420e+00;0;     0.161;   554.036;  16670.414; 0;  16661.205;  16670.414;  16940.525;  16386.490;127;   8.788; 346.707;;;  33.813; 121.413;  23.287;   0.264;   0.016;   8.788;   8.779;  -8.635;   1.631;   0.040;;;;;;;;;;;;;;;;;;
2010-03-02T17:37:42.478Z;0;3.4140e+00;0;     0.164;   594.524;  16602.400; 0;  16591.752;  16602.400;  16891.678;  16297.153;127;   8.778; 347.331;;;  34.433; 122.033;  23.290;   0.264;   0.016;   8.778;   8.769;  -8.627;   1.622;   0.040;;;;;;;;;;;;;;;;;;
2010-03-02T17:38:22.478Z;0;3.7320e+00;0;     0.173;   594.524;  17358.428; 0;  17348.244;  17358.428;  17648.053;  17053.527;127;   8.772; 347.677;;;  34.778; 122.378;  23.292;   0.264;   0.016;   8.773;   8.763;  -8.622;   1.616;   0.040;;;;;;;;;;;;;;;;;;
2010-03-02T17:38:30.477Z;0;3.7870e+00;0;     0.197;   594.524;  17485.842; 0;  17475.732;  17485.842;  17775.521;  17180.998;127;   8.771; 347.746;;;  34.847; 122.447;  23.292;   0.264;   0.016;   8.772;   8.762;  -8.621;   1.615;   0.040;;;;;;;;;;;;;;;;;;
2010-03-02T17:38:46.477Z;0;3.6970e+00;0;     0.255;   594.524;  17276.820; 0;  17266.588;  17276.820;  17566.408;  16971.885;127;   8.769; 347.885;;;  34.984; 122.584;  23.293;   0.264;   0.016;   8.769;   8.760;  -8.619;   1.613;   0.040;;;;;;;;;;;;;;;;;;
2010-03-02T17:38:54.477Z;0;3.5770e+00;0;     0.174;   594.524;  16994.637; 0;  16984.234;  16994.637;  17284.098;  16689.574;127;   8.768; 347.954;;;  35.053; 122.653;  23.294;   0.264;   0.016;   8.768;   8.759;  -8.619;   1.612;   0.040;;;;;;;;;;;;;;;;;;
2010-03-02T17:39:10.477Z;0;2.8120e+00;0;     0.146;   594.524;  15071.480; 0;  15059.750;  15071.480;  15359.945;  14765.421;127;   8.766; 348.093;;;  35.191; 122.791;  23.294;   0.264;   0.015;   8.766;   8.757;  -8.617;   1.610;   0.040;;;;;;;;;;;;;;;;;;
2010-03-02T17:39:18.477Z;0;2.6500e+00;0;     0.188;   594.524;  14629.910; 0;  14617.825;  14629.910;  14918.109;  14323.585;127;   8.765; 348.162;;;  35.260; 122.860;  23.295;   0.264;   0.015;   8.765;   8.756;  -8.616;   1.609;   0.040;;;;;;;;;;;;;;;;;;
2010-03-02T17:39:34.477Z;0;3.8970e+00;0;     0.157;   641.172;  17738.414; 0;  17726.822;  17738.414;  18050.307;  17409.135;127;   8.762; 348.301;;;  35.398; 122.998;  23.296;   0.264;   0.015;   8.763;   8.753;  -8.614;   1.607;   0.040;;;;;;;;;;;;;;;;;;
2010-03-02T17:39:42.477Z;0;3.2190e+00;0;     0.091;   641.172;  16123.777; 0;  16111.024;  16123.777;  16434.799;  15793.627;127;   8.761; 348.370;;;  35.467; 123.067;  23.296;   0.264;   0.015;   8.762;   8.752;  -8.613;   1.606;   0.040;;;;;;;;;;;;;;;;;;
2010-03-02T17:39:58.477Z;0;3.4650e+00;0;     0.085;   641.172;  16728.154; 0;  16715.861;  16728.154;  17039.521;  16398.350;127;   8.759; 348.509;;;  35.604; 123.204;  23.297;   0.264;   0.015;   8.759;   8.750;  -8.611;   1.603;   0.040;;;;;;;;;;;;;;;;;;
2010-03-02T17:40:06.477Z;0;3.4460e+00;0;     0.077;   641.172;  16681.359; 0;  16669.033;  16681.359;  16992.701;  16351.529;127;   8.758; 348.578;;;  35.674; 123.273;  23.297;   0.264;   0.015;   8.758;   8.749;  -8.610;   1.602;   0.040;;;;;;;;;;;;;;;;;;
2010-03-02T17:40:22.477Z;0;3.1110e+00;0;     0.139;   641.172;  15851.095; 0;  15838.122;  15851.095;  16161.952;  15520.780;127;   8.756; 348.716;;;  35.813; 123.411;  23.298;   0.264;   0.015;   8.756;   8.747;  -8.608;   1.600;   0.040;;;;;;;;;;;;;;;;;;
2010-03-02T17:40:30.477Z;0;3.2230e+00;0;     0.078;   641.172;  16133.380; 0;  16120.634;  16133.380;  16444.408;  15803.235;127;   8.755; 348.786;;;  35.882; 123.480;  23.298;   0.264;   0.015;   8.755;   8.746;  -8.607;   1.599;   0.040;;;;;;;;;;;;;;;;;;
2010-03-02T17:40:46.477Z;0;3.4940e+00;0;     0.119;   641.172;  16796.977; 0;  16784.734;  16796.977;  17108.383;  16467.211;127;   8.752; 348.924;;;  36.022; 123.617;  23.299;   0.264;   0.015;   8.753;   8.743;  -8.605;   1.597;   0.040;;;;;;;;;;;;;;;;;;
2010-03-02T17:40:54.476Z;0;3.7980e+00;0;     0.125;   641.172;  17511.434; 0;  17499.691;  17511.434;  17823.213;  17182.041;127;   8.751; 348.993;;;  36.091; 123.686;  23.299;   0.264;   0.015;   8.752;   8.742;  -8.605;   1.596;   0.040;;;;;;;;;;;;;;;;;;
2010-03-02T17:41:10.476Z;0;4.2370e+00;0;     0.094;   641.172;  18495.377; 0;  18484.260;  18495.377;  18807.625;  18166.453;127;   8.749; 349.132;;;  36.231; 123.824;  23.300;   0.264;   0.015;   8.749;   8.740;  -8.603;   1.594;   0.040;;;;;;;;;;;;;;;;;;
2010-03-02T17:41:18.476Z;0;4.8430e+00;0;     0.135;   641.172;  19772.219; 0;  19761.820;  19772.219;  20085.006;  19443.834;127;   8.748; 349.201;;;  36.300; 123.893;  23.301;   0.264;   0.015;   8.748;   8.739;  -8.602;   1.593;   0.040;;;;;;;;;;;;;;;;;;
2010-03-02T17:41:34.476Z;0;3.9900e+00;0;     0.149;   591.276;  17948.088; 0;  17938.346;  17948.088;  18236.420;  17645.145;127;   8.746; 349.340;;;  36.440; 124.031;  23.301;   0.264;   0.015;   8.746;   8.737;  -8.600;   1.591;   0.040;;;;;;;;;;;;;;;;;;
2010-03-02T17:41:42.476Z;0;3.4730e+00;0;     0.143;   591.276;  16744.668; 0;  16734.225;  16744.668;  17032.475;  16441.199;127;   8.745; 349.409;;;  36.509; 124.099;  23.302;   0.264;   0.015;   8.745;   8.736;  -8.599;   1.590;   0.040;;;;;;;;;;;;;;;;;;
2010-03-02T17:41:58.476Z;0;4.0580e+00;0;     0.177;   591.276;  18099.598; 0;  18089.938;  18099.598;  18387.990;  17796.715;127;   8.742; 349.548;;;  36.649; 124.237;  23.302;   0.264;   0.015;   8.743;   8.733;  -8.597;   1.587;   0.040;;;;;;;;;;;;;;;;;;
2010-03-02T17:42:06.476Z;0;4.2840e+00;0;     0.219;   591.276;  18595.236; 0;  18585.834;  18595.236;  18883.822;  18292.547;127;   8.741; 349.617;;;  36.719; 124.306;  23.303;   0.264;   0.014;   8.742;   8.732;  -8.596;   1.586;   0.040;;;;;;;;;;;;;;;;;;
2010-03-02T17:42:22.476Z;0;4.8940e+00;0;     0.189;   591.276;  19874.000; 0;  19865.203;  19874.000;  20163.041;  19571.764;127;   8.739; 349.755;;;  36.858; 124.444;  23.304;   0.264;   0.014;   8.739;   8.730;  -8.594;   1.584;   0.040;;;;;;;;;;;;;;;;;;
2010-03-02T17:43:42.475Z;0;4.5360e+00;0;     0.169;   595.616;  19134.908; 0;  19125.637;  19134.908;  19425.762;  18830.146;127;   8.728; 350.448;;;  37.557; 125.132;  23.308;   0.264;   0.014;   8.728;   8.719;  -8.585;   1.573;   0.040;;;;;;;;;;;;;;;;;;
2010-03-02T17:44:06.475Z;0;4.1790e+00;0;     0.194;   595.616;  18367.271; 0;  18357.611;  18367.271;  18657.836;  18062.219;127;   8.725; 350.655;;;  37.767; 125.338;  23.309;   0.263;   0.014;   8.725;   8.716;  -8.582;   1.570;   0.040;;;;;;;;;;;;;;;;;;
2010-03-02T17:44:22.475Z;0;4.4540e+00;0;     0.185;   595.616;  18960.662; 0;  18951.305;  18960.662;  19251.453;  18655.836;127;   8.722; 350.794;;;  37.907; 125.476;  23.310;   0.263;   0.013;   8.723;   8.713;  -8.580;   1.568;   0.040;;;;;;;;;;;;;;;;;;
2010-03-02T17:44:46.475Z;0;4.9070e+00;0;     0.179;   595.616;  19901.756; 0;  19892.842;  19901.756;  20192.879;  19597.262;127;   8.719; 351.001;;;  38.118; 125.682;  23.311;   0.263;   0.013;   8.719;   8.710;  -8.577;   1.565;   0.040;;;;;;;;;;;;;;;;;;
2010-03-02T17:45:18.475Z;0;4.9660e+00;0;     0.178;   595.616;  20020.535; 0;  20011.674;  20020.535;  20311.697;  19716.082;127;   8.715; 351.278;;;  38.398; 125.958;  23.312;   0.263;   0.013;   8.715;   8.706;  -8.574;   1.560;   0.040;;;;;;;;;;;;;;;;;;
2010-03-02T17:45:34.474Z;0;4.8480e+00;0;     0.143;   589.764;  19780.111; 0;  19771.316;  19780.111;  20068.398;  19478.635;127;   8.712; 351.417;;;  38.539; 126.095;  23.313;   0.263;   0.013;   8.713;   8.703;  -8.572;   1.558;   0.040;;;;;;;;;;;;;;;;;;
2010-03-02T17:45:42.474Z;0;4.6280e+00;0;     0.134;   589.764;  19328.281; 0;  19319.281;  19328.281;  19616.414;  19026.650;127;   8.711; 351.486;;;  38.609; 126.164;  23.313;   0.263;   0.013;   8.711;   8.702;  -8.571;   1.557;   0.040;;;;;;;;;;;;;;;;;;
2010-03-02T17:45:58.474Z;0;5.0080e+00;0;     0.185;   589.764;  20103.980; 0;  20095.328;  20103.980;  20392.373;  19802.609;127;   8.709; 351.624;;;  38.749; 126.302;  23.314;   0.263;   0.013;   8.709;   8.700;  -8.569;   1.555;   0.040;;;;;;;;;;;;;;;;;;
2010-03-02T17:46:54.474Z;0;4.3670e+00;0;     0.204;   589.764;  18774.064; 0;  18764.799;  18774.064;  19061.998;  18472.234;127;   8.701; 352.109;;;  39.242; 126.783;  23.317;   0.263;   0.012;   8.701;   8.692;  -8.562;   1.548;   0.040;;;;;;;;;;;;;;;;;;
2010-03-02T17:47:10.474Z;0;4.1050e+00;0;     0.188;   589.764;  18203.322; 0;  18193.766;  18203.322;  18491.037;  17901.273;127;   8.699; 352.247;;;  39.382; 126.921;  23.318;   0.263;   0.012;   8.699;   8.690;  -8.561;   1.545;   0.040;;;;;;;;;;;;;;;;;;
2010-03-02T17:47:18.474Z;0;3.8670e+00;0;     0.100;   589.764;  17668.807; 0;  17658.961;  17668.807;  17956.305;  17366.541;127;   8.698; 352.316;;;  39.453; 126.989;  23.318;   0.263;   0.012;   8.698;   8.689;  -8.560;   1.544;   0.040;;;;;;;;;;;;;;;;;;
2010-03-02T17:47:34.474Z;0;3.7810e+00;0;     0.094;   594.468;  17471.428; 0;  17461.311;  17471.428;  17761.074;  17166.607;127;   8.696; 352.455;;;  39.594; 127.127;  23.319;   0.263;   0.012;   8.696;   8.687;  -8.558;   1.542;   0.040;;;;;;;;;;;;;;;;;;
2010-03-02T17:47:42.474Z;0;3.7560e+00;0;     0.100;   594.468;  17414.598; 0;  17404.449;  17414.598;  17704.221;  17109.752;127;   8.695; 352.524;;;  39.664; 127.196;  23.319;   0.263;   0.012;   8.695;   8.686;  -8.557;   1.541;   0.040;;;;;;;;;;;;;;;;;;
2010-03-02T17:48:06.473Z;0;3.9050e+00;0;     0.170;   594.468;  17755.957; 0;  17746.002;  17755.957;  18045.727;  17451.258;127;   8.691; 352.731;;;  39.876; 127.402;  23.320;   0.263;   0.012;   8.691;   8.682;  -8.554;   1.538;   0.040;;;;;;;;;;;;;;;;;;
2010-03-02T17:48:22.473Z;0;3.8240e+00;0;     0.140;   594.468;  17569.406; 0;  17559.346;  17569.406;  17859.096;  17264.627;127;   8.689; 352.870;;;  40.017; 127.540;  23.321;   0.262;   0.012;   8.689;   8.680;  -8.552;   1.536;   0.040;;;;;;;;;;;;;;;;;;
2010-03-02T17:48:30.473Z;0;3.8800e+00;0;     0.102;   594.468;  17699.383; 0;  17689.396;  17699.383;  17989.127;  17394.660;127;   8.688; 352.939;;;  40.087; 127.608;  23.322;   0.262;   0.012;   8.688;   8.679;  -8.551;   1.535;   0.040;;;;;;;;;;;;;;;;;;
2010-03-02T17:50:06.473Z;0;3.9770e+00;0;     0.146;   608.300;  17919.709; 0;  17909.381;  17919.709;  18216.113;  17607.814;127;   8.674; 353.769;;;  40.934; 128.434;  23.326;   0.262;   0.011;   8.675;   8.665;  -8.540;   1.522;   0.040;;;;;;;;;;;;;;;;;;
2010-03-02T17:50:30.472Z;0;4.2420e+00;0;     0.183;   608.300;  18506.221; 0;  18496.221;  18506.221;  18802.871;  18194.570;127;   8.671; 353.976;;;  41.142; 128.640;  23.328;   0.262;   0.011;   8.671;   8.662;  -8.537;   1.518;   0.040;;;;;;;;;;;;;;;;;;
2010-03-02T17:50:46.472Z;0;3.9370e+00;0;     0.172;   608.300;  17827.531; 0;  17817.150;  17827.531;  18123.896;  17515.596;127;   8.669; 354.115;;;  41.281; 128.777;  23.328;   0.262;   0.011;   8.669;   8.660;  -8.535;   1.516;   0.040;;;;;;;;;;;;;;;;;;
2010-03-02T17:50:54.472Z;0;4.1040e+00;0;     0.176;   608.300;  18201.293; 0;  18191.125;  18201.293;  18497.818;  17889.518;127;   8.668; 354.184;;;  41.350; 128.846;  23.329;   0.262;   0.010;   8.668;   8.659;  -8.534;   1.515;   0.040;;;;;;;;;;;;;;;;;;
2010-03-02T17:51:42.472Z;0;3.9690e+00;0;     0.196;   613.284;  17901.426; 0;  17890.918;  17901.426;  18200.188;  17586.902;127;   8.661; 354.599;;;  41.765; 129.258;  23.331;   0.262;   0.010;   8.661;   8.652;  -8.529;   1.509;   0.040;;;;;;;;;;;;;;;;;;
2010-03-02T17:51:58.472Z;0;4.0430e+00;0;     0.185;   613.284;  18067.557; 0;  18057.145;  18067.557;  18366.391;  17753.107;127;   8.659; 354.737;;;  41.904; 129.396;  23.332;   0.262;   0.010;   8.659;   8.650;  -8.527;   1.507;   0.040;;;;;;;;;;;;;;;;;;
2010-03-02T17:52:06.472Z;0;4.0420e+00;0;     0.216;   613.284;  18063.494; 0;  18053.080;  18063.494;  18362.326;  17749.043;127;   8.658; 354.806;;;  41.973; 129.465;  23.332;   0.262;   0.010;   8.658;   8.649;  -8.526;   1.506;   0.040;;;;;;;;;;;;;;;;;;
2010-03-02T17:52:54.471Z;0;4.1650e+00;0;     0.208;   613.284;  18336.104; 0;  18325.844;  18336.104;  18635.051;  18021.768;127;   8.651; 355.221;;;  42.387; 129.877;  23.335;   0.261;   0.010;   8.651;   8.642;  -8.520;   1.499;   0.039;;;;;;;;;;;;;;;;;;
2010-03-02T17:53:34.471Z;0;4.1480e+00;0;     0.242;   621.964;  18299.871; 0;  18289.299;  18299.871;  18602.924;  17980.961;127;   8.645; 355.566;;;  42.732; 130.220;  23.337;   0.261;   0.009;   8.646;   8.637;  -8.515;   1.494;   0.039;;;;;;;;;;;;;;;;;;
2010-03-02T17:53:42.471Z;0;4.0740e+00;0;     0.151;   621.964;  18135.266; 0;  18124.598;  18135.266;  18438.246;  17816.283;127;   8.644; 355.636;;;  42.801; 130.289;  23.337;   0.261;   0.009;   8.645;   8.635;  -8.514;   1.493;   0.039;;;;;;;;;;;;;;;;;;
2010-03-02T17:53:58.471Z;0;4.1250e+00;0;     0.162;   621.964;  18249.842; 0;  18239.240;  18249.842;  18552.873;  17930.910;127;   8.642; 355.774;;;  42.938; 130.426;  23.338;   0.261;   0.009;   8.642;   8.633;  -8.513;   1.490;   0.039;;;;;;;;;;;;;;;;;;